Location: Famechon
(49.7599°N, 2.0615°E)
Time: 05:47:31
(UTC+00:00)

Lacrosse 5 - Pass Details

Date: 03 February 2023
Orbit: 714 x 724 km, 57.0° (Epoch: 09 March)

Event Time Altitude Azimuth Distance (km) Brightness Sun altitude
Rises 20:09:06 0° 264° (W) 3,136 6.1 -32.3°
Reaches altitude 10° 20:11:35 10° 271° (W) 2,217 5.2 -32.6°
Enters shadow 20:15:03 36° 302° (WNW) 1,151 3.3 -33.2°
